Weather reports worldwide

Advertisment
Wittmund, Germany (10126): temperature & dewpoint: 09.12.2019 19:00:00 - 15.12.2019 19:00:00 (CET)Wittmund, Germany (10126): wind speed & gusts: 09.12.2019 19:00:00 - 15.12.2019 19:00:00 (CET)Wittmund, Germany (10126): wind direction: 09.12.2019 19:00:00 - 15.12.2019 19:00:00 (CET)Wittmund, Germany (10126): reduced air pressure: 09.12.2019 19:00:00 - 15.12.2019 19:00:00 (CET)Wittmund, Germany (10126): visibility: 09.12.2019 19:00:00 - 15.12.2019 19:00:00 (CET)
Date & Time tt [°C] td [°C] ff [km/h] ff [kn] fx [km/h] fx [kn] dd ppp [hPa] vv [km]
15.12.2019 19:00:00 - - - - - - - - -
15.12.2019 18:00:00 6,6 4,1 22 12 - - WSW 998,7 10
15.12.2019 17:00:00 6,5 3,5 29 16 50 27 WSW 997,8 10
15.12.2019 16:00:00 7,4 2,4 25 14 - - WSW 996,8 40
15.12.2019 15:00:00 7,8 2,0 32 18 68 37 W 995,7 40
15.12.2019 14:00:00 8,1 1,7 36 19 76 41 WSW 994,3 40
15.12.2019 13:00:00 8,1 0,6 40 21 - - WSW 993,1 35
15.12.2019 12:00:00 7,7 0,1 40 21 72 39 WSW 991,8 35
15.12.2019 11:00:00 7,4 0,3 40 21 76 41 WSW 990,7 35
15.12.2019 10:00:00 7,4 2,5 40 21 - - WSW 989,0 30
15.12.2019 09:00:00 7,7 4,1 36 19 65 35 SW 987,7 25
15.12.2019 08:00:00 7,6 5,2 32 18 58 31 SW 986,6 20
15.12.2019 07:00:00 5,4 4,0 25 14 - - S 986,2 15
15.12.2019 06:00:00 5,1 2,0 29 16 - - S 987,4 8
15.12.2019 05:00:00 4,2 1,4 22 12 - - S 989,1 20
15.12.2019 04:00:00 3,0 0,6 18 10 - - S 991,3 25
15.12.2019 03:00:00 3,5 0,5 14 8 - - S 993,1 25
15.12.2019 02:00:00 3,5 0,2 18 10 - - SSW 993,4 25
15.12.2019 01:00:00 3,4 0,5 22 12 - - SSW 994,1 25
15.12.2019 00:00:00 3,7 0,7 18 10 - - SW 994,1 25
14.12.2019 23:00:00 3,8 1,2 18 10 - - SW 993,7 25
14.12.2019 22:00:00 4,3 1,3 29 16 - - WSW 992,2 20
14.12.2019 21:00:00 4,2 2,2 25 14 47 25 SW 991,3 20
14.12.2019 20:00:00 4,2 1,8 25 14 54 29 W 990,3 20
14.12.2019 19:00:00 5,2 2,3 25 14 - - SW 988,5 20
14.12.2019 18:00:00 6,1 1,5 25 14 - - WSW 987,6 20
14.12.2019 17:00:00 5,9 1,8 22 12 - - WSW 987,0 20
14.12.2019 16:00:00 5,7 1,8 29 16 - - WSW 986,3 20
14.12.2019 15:00:00 6,0 2,5 25 14 61 33 WSW 985,5 20
14.12.2019 14:00:00 5,4 2,5 29 16 76 41 WSW 984,4 20
14.12.2019 13:00:00 6,5 2,4 32 18 - - WSW 983,8 20
14.12.2019 12:00:00 5,9 2,7 25 14 - - WSW 982,7 20
14.12.2019 11:00:00 5,0 3,2 22 12 - - SW 982,2 12
14.12.2019 10:00:00 4,7 3,3 22 12 - - SW 981,5 12
14.12.2019 09:00:00 4,2 2,9 18 10 - - SW 980,7 12
14.12.2019 08:00:00 4,9 2,8 29 16 47 25 SW 979,7 12
14.12.2019 07:00:00 4,9 3,4 25 14 - - SW 979,3 8
14.12.2019 06:00:00 5,0 3,1 25 14 - - SSW 978,9 6
14.12.2019 05:00:00 5,2 3,0 21 11 - - SSW 979,2 10
14.12.2019 04:00:00 5,0 3,1 22 12 - - SSW 979,5 15
14.12.2019 03:00:00 5,3 3,6 18 10 - - SSW 979,9 12
14.12.2019 02:00:00 4,7 3,7 18 10 - - SSW 980,0 7
14.12.2019 01:00:00 3,8 3,2 11 6 - - SSW 980,5 5
14.12.2019 00:00:00 2,9 2,3 14 8 - - S 980,8 6
13.12.2019 23:00:00 2,2 1,5 11 6 - - S 981,1 7
13.12.2019 22:00:00 1,7 1,0 11 6 - - S 981,4 6
13.12.2019 21:00:00 1,5 0,8 11 6 - - S 981,5 7
13.12.2019 20:00:00 1,7 0,8 11 6 - - S 981,2 7
13.12.2019 19:00:00 1,9 0,8 7 4 - - S 981,1 10
13.12.2019 18:00:00 2,1 0,6 11 6 - - SE 980,5 12
13.12.2019 17:00:00 2,4 0,3 11 6 - - SSE 980,0 12
13.12.2019 16:00:00 2,5 0,4 11 6 - - SE 979,3 15
13.12.2019 15:00:00 2,7 -0,1 11 6 - - SE 978,6 20
13.12.2019 14:00:00 2,7 -0,5 14 8 - - SE 978,1 15
13.12.2019 13:00:00 2,5 -0,6 18 10 - - SE 977,8 25
13.12.2019 12:00:00 2,5 -0,9 18 10 - - SE 977,7 18
13.12.2019 11:00:00 2,2 -1,2 22 12 - - SE 977,5 10
13.12.2019 10:00:00 1,8 -1,3 22 12 - - ESE 977,5 30
13.12.2019 09:00:00 1,8 -1,5 22 12 - - ESE 977,4 30
13.12.2019 08:00:00 1,9 -1,7 18 10 - - SE 977,6 10
13.12.2019 07:00:00 1,9 -1,8 22 12 - - SE 978,1 30
13.12.2019 06:00:00 1,9 -1,7 22 12 - - SE 978,7 30
13.12.2019 05:00:00 2,0 -1,6 22 12 - - SE 979,4 30
13.12.2019 04:00:00 2,1 -1,4 22 12 - - SE 980,4 30
13.12.2019 03:00:00 2,2 -1,4 25 14 - - SE 981,7 30
13.12.2019 02:00:00 2,4 -1,2 22 12 - - SSE 983,3 30
13.12.2019 01:00:00 2,1 -1,1 25 14 - - SSE 984,9 30
13.12.2019 00:00:00 2,1 -1,3 22 12 - - SSE 986,6 30
12.12.2019 23:00:00 2,1 -1,0 22 12 - - SSE 988,3 30
12.12.2019 22:00:00 2,5 -0,7 22 12 - - SSE 989,6 20
12.12.2019 21:00:00 2,6 -0,4 22 12 - - SSE 990,9 20
12.12.2019 20:00:00 2,4 0,0 18 10 - - SSE 992,3 20
12.12.2019 19:00:00 2,6 0,1 14 8 - - SSE 993,3 20
12.12.2019 18:00:00 2,8 0,4 14 8 - - S 994,5 20
12.12.2019 17:00:00 3,3 0,5 14 8 - - S 995,3 18
12.12.2019 16:00:00 4,5 1,3 18 10 - - SSW 996,1 18
12.12.2019 15:00:00 5,2 2,1 14 8 - - SSW 996,8 18
12.12.2019 14:00:00 5,7 2,4 22 12 - - SSW 997,2 18
12.12.2019 13:00:00 5,6 2,8 18 10 - - SSW 997,9 15
12.12.2019 12:00:00 5,3 3,0 18 10 - - SW 998,6 15
12.12.2019 11:00:00 5,1 3,3 18 10 - - SW 999,1 12
12.12.2019 10:00:00 5,1 3,3 22 12 - - SW 999,1 10
12.12.2019 09:00:00 5,1 3,3 18 10 - - SSW 999,1 9
12.12.2019 08:00:00 5,1 3,4 18 10 - - SSW 999,1 12
12.12.2019 07:00:00 5,2 3,4 18 10 - - SSW 999,2 10
12.12.2019 06:00:00 5,2 3,7 14 8 - - S 999,4 7
12.12.2019 05:00:00 4,9 3,6 11 6 - - SSW 999,8 8
12.12.2019 04:00:00 4,8 3,5 11 6 - - S 1000,2 8
12.12.2019 03:00:00 4,8 3,1 11 6 - - SSW 1001,0 8
12.12.2019 02:00:00 4,6 3,1 18 10 - - SW 1001,4 5
12.12.2019 01:00:00 4,7 3,7 14 8 - - SW 1001,6 5
12.12.2019 00:00:00 4,6 3,6 18 10 - - SW 1002,3 5
11.12.2019 23:00:00 4,9 3,9 11 6 - - SSW 1002,5 6
11.12.2019 22:00:00 5,1 4,1 14 8 - - SSW 1002,9 6
11.12.2019 21:00:00 5,0 4,1 11 6 - - SSW 1003,2 6
11.12.2019 20:00:00 5,7 4,7 11 6 - - SSW 1003,3 6
11.12.2019 19:00:00 5,4 4,5 11 6 - - SSW 1003,6 7
11.12.2019 18:00:00 5,6 4,6 11 6 - - SSW 1003,8 10
11.12.2019 17:00:00 6,0 4,9 7 4 - - SSW 1003,9 10
11.12.2019 16:00:00 6,5 5,2 11 6 - - S 1004,1 12
11.12.2019 15:00:00 6,8 5,3 11 6 - - SSW 1004,4 12
11.12.2019 14:00:00 6,5 5,2 14 8 - - SW 1005,0 12
11.12.2019 13:00:00 6,5 5,1 14 8 - - SW 1005,7 12
11.12.2019 12:00:00 6,3 4,9 14 8 - - SW 1006,4 11
11.12.2019 11:00:00 6,1 4,7 14 8 - - SW 1007,0 10
11.12.2019 10:00:00 6,0 4,8 18 10 - - SSW 1006,7 12
11.12.2019 09:00:00 6,0 4,8 22 12 - - SW 1007,1 15
11.12.2019 08:00:00 5,8 4,6 22 12 - - SSW 1006,8 15
11.12.2019 07:00:00 5,7 4,5 22 12 - - SSW 1006,8 12
11.12.2019 06:00:00 5,4 4,1 22 12 - - SSW 1006,7 8
11.12.2019 05:00:00 5,4 3,6 29 16 54 29 SW 1006,8 8
11.12.2019 04:00:00 6,2 2,5 36 19 - - SSW 1006,3 30
11.12.2019 03:00:00 6,6 1,5 36 19 58 31 SSW 1006,5 30
11.12.2019 02:00:00 6,6 0,7 32 18 68 37 SSW 1006,9 30
11.12.2019 01:00:00 6,3 -0,2 32 18 - - SSW 1007,4 30
11.12.2019 00:00:00 5,9 -0,9 36 19 58 31 SSW 1008,4 30
10.12.2019 23:00:00 5,7 -0,7 32 18 54 29 S 1008,8 30
10.12.2019 22:00:00 5,1 -0,1 29 16 - - S 1009,9 30
10.12.2019 21:00:00 4,6 0,7 32 18 54 29 S 1010,7 20
10.12.2019 20:00:00 4,9 0,1 29 16 47 25 S 1012,4 30
10.12.2019 19:00:00 4,3 0,3 29 16 - - S 1013,5 30
10.12.2019 18:00:00 4,2 0,1 29 16 - - S 1014,8 30
10.12.2019 17:00:00 4,5 0,2 22 12 - - S 1016,3 30
10.12.2019 16:00:00 5,0 0,4 22 12 - - SSW 1017,4 30
10.12.2019 15:00:00 5,8 0,8 25 14 - - SSW 1018,4 35
10.12.2019 14:00:00 5,8 1,7 18 10 - - SSW 1019,7 35
10.12.2019 13:00:00 5,5 1,4 22 12 - - SSW 1020,6 40
10.12.2019 12:00:00 5,1 0,7 18 10 - - SSW 1021,4 40
10.12.2019 11:00:00 4,1 0,5 14 8 - - SSW 1022,2 35
10.12.2019 10:00:00 2,9 0,8 11 6 - - SSW 1022,0 30
10.12.2019 09:00:00 2,2 0,3 11 6 - - SSW 1021,9 25
10.12.2019 08:00:00 3,5 0,6 11 6 - - SW 1021,4 25
10.12.2019 07:00:00 5,5 0,0 11 6 - - W 1021,3 20
10.12.2019 06:00:00 4,0 -0,1 11 6 - - W 1020,5 20
10.12.2019 05:00:00 4,6 0,4 11 6 - - WNW 1019,9 20
10.12.2019 04:00:00 4,9 0,8 14 8 - - WNW 1019,0 20
10.12.2019 03:00:00 5,1 1,0 11 6 - - W 1018,3 20
10.12.2019 02:00:00 5,4 1,0 14 8 - - WNW 1017,0 20
10.12.2019 01:00:00 5,0 1,1 14 8 - - WNW 1016,2 20
10.12.2019 00:00:00 6,0 1,2 18 10 47 25 NW 1014,7 20
09.12.2019 23:00:00 6,1 1,5 18 10 - - NW 1013,4 20
09.12.2019 22:00:00 5,9 1,3 18 10 - - NW 1012,3 20
09.12.2019 21:00:00 6,0 -0,3 25 14 47 25 NW 1010,3 25
09.12.2019 20:00:00 5,7 0,5 22 12 54 29 NNW 1008,7 25
09.12.2019 19:00:00 6,2 0,2 25 14 - - NW 1006,8 25

tt = temperature
td = dewpoint
ff = wind speed
fx = gusts
dd = wind direction
ppp = reduced air pressure
vv = visibility

Next stations